Valinhos, Brazil
Current Conditions -  °F | °C
As of 6:00 PM on Sunday 23 Nov 2014 (Local Time) from SBGW Reporting Station
Broken Clouds Broken Clouds  
Wind Chill: 77°   Ceiling: 2000
Heat Index: 79°   Visibility: 5mi
Dew Point: 66°   Wind: 2mph
Humidity: 69%   Direction: 330°NNW
Pressure: 29.94"   Gusts: NA
Location:  21.93°S, 45.18°W
Report Text: SBGW 232000Z 33002KT 8000 BKN020 BKN080 25/19 Q1014
Loading
Personal Weather Stations






























Interactive Weather Map New forecast layout! Learn more

10-Day Weather Forecast

Advertisements
Track Severe Weather on mobile